FW4102 Weather Reports


time (UTC)temp
F
wind
direction
speed
knots
gust
knots
rain 1hr
in
rain 24hr
in
rain mn
in
humidity
%
barometer
mb
20260503220036 54 302 1.7 7.0 0.03 0.87 0.56 69 1011.2
20260503214535 53 234 2.6 9.6 0.03 0.84 0.53 69 1010.8
20260503213035 53 284 4.3 14.8 0.03 0.84 0.53 68 1010.5
20260503211537 53 272 5.2 14.8 0.03 0.85 0.53 68 1010.4
20260503210033 53 250 2.6 11.3 0.03 0.85 0.53 68 1010.2
20260503204542 53 274 4.3 10.4 0.00 0.81 0.50 68 1009.9
20260503203036 53 270 3.5 15.6 0.00 0.81 0.50 68 1009.7
20260503201538 53 277 3.5 11.3 0.00 0.81 0.50 68 1009.5
20260503200035 53 267 4.3 12.2 0.00 0.81 0.50 68 1009.5
20260503194537 53 263 4.3 13.9 0.00 0.81 0.50 68 1009.3
20260503193040 53 270 4.3 19.1 0.00 0.81 0.49 68 1009.1
20260503191535 53 310 7.0 19.1 0.01 0.81 0.49 68 1009.0
20260503190042 53 252 3.5 17.4 0.01 0.81 0.49 68 1009.1
20260503184537 53 267 6.1 17.4 0.01 0.81 0.49 68 1009.0
20260503183052 53 267 6.1 16.5 0.00 0.80 0.48 68 1008.9
20260503181540 53 281 3.5 11.3 0.00 0.82 0.48 68 1009.0
20260503180037 53 280 5.2 14.8 0.00 0.82 0.48 68 1009.1
20260503174536 53 288 4.3 18.2 0.00 0.82 0.48 68 1009.1
20260503173035 53 249 4.3 14.8 0.00 0.82 0.48 68 1009.2
20260503171537 53 280 3.5 20.9 0.00 0.83 0.48 68 1009.3
20260503081535 55 286 4.3 17.4 0.06 0.31 0.31 60 1009.1
20260503071538 55 293 5.2 20.9 0.00 0.30 0.25 61 1008.5
20260503054541 53 281 7.0 20.9 0.10 0.37 0.22 64 1008.9
20260503053032 54 263 5.2 13.9 0.05 0.33 0.17 65 1008.8
20260503051536 55 287 4.3 11.3 0.03 0.43 0.15 63 1008.9
20260503050035 56 221 7.8 20.9 0.00 0.39 0.11 60 1008.6
20260503044542 56 252 7.0 19.1 0.00 0.39 0.11 60 1008.4
20260503043040 56 269 7.8 20.0 0.00 0.39 0.11 58 1008.1
20260503041537 56 281 10.4 20.9 0.00 0.52 0.11 58 1008.3
20260503040038 57 296 7.8 17.4 0.00 0.52 0.11 58 1008.6
20260503034534 57 277 10.4 24.3 0.00 0.52 0.11 57 1008.5
20260503033044 57 267 9.6 29.5 0.00 0.52 0.11 60 1008.5
20260503031539 56 296 8.7 19.1 0.00 0.57 0.11 62 1008.6
20260503030036 56 294 8.7 21.7 0.00 0.57 0.11 60 1008.7
20260503024533 57 276 6.1 14.8 0.00 0.56 0.11 58 1008.7
20260503023037 56 267 7.8 21.7 0.00 0.56 0.11 58 1008.8
20260503021537 55 290 9.6 20.0 0.00 0.56 0.11 60 1008.9
20260503020037 54 268 8.7 18.2 0.00 0.56 0.11 62 1009.1
20260503014536 55 263 6.1 13.9 0.00 0.55 0.10 60 1009.1
20260503013044 55 296 9.6 21.7 0.00 0.55 0.10 60 1008.9
20260503011537 55 277 7.8 20.0 0.00 0.55 0.10 60 1008.9
20260503010047 55 269 7.0 16.5 0.00 0.55 0.10 60 1009.0
20260503004537 55 303 7.0 20.0 0.00 0.55 0.10 59 1008.9
20260503003035 54 291 7.0 20.9 0.00 0.55 0.10 59 1009.0
20260503001535 54 285 10.4 19.1 0.00 0.63 0.10 59 1008.7
20260503000037 53 265 7.8 19.1 0.00 0.63 0.10 60 1008.7
20260502234539 53 262 6.1 15.6 0.00 0.63 0.10 61 1008.8
20260502233033 52 291 7.0 16.5 0.00 0.63 0.10 61 1009.0
20260502231537 52 220 5.2 13.0 0.00 0.63 0.10 61 1009.3
20260502230034 52 243 5.2 13.9 0.00 0.63 0.10 62 1009.4
20260502224539 51 299 5.2 11.3 0.00 0.63 0.10 63 1009.3
20260502223035 51 266 5.2 12.2 0.00 0.63 0.10 64 1009.2
20260502221535 50 281 5.2 14.8 0.00 0.63 0.10 64 1009.3